Change the Weather History Date:

Thursday, March 14, 2013

  Actual Average Record
Temperature  
Mean Temperature 27 °F -  
Max Temperature 35 °F 34 °F 57 °F (2012)
Min Temperature 19 °F 16 °F -21 °F (1993)
Degree Days  
Heating Degree Days 38    
Moisture  
Dew Point 21 °F    
Average Humidity 83    
Maximum Humidity 100    
Minimum Humidity 65    
Precipitation  
Precipitation 0.12 in - - ()
Sea Level Pressure  
Sea Level Pressure 30.05 in    
Wind  
Wind Speed 6 mph (South)    
Max Wind Speed 13 mph    
Max Gust Speed -    
Visibility 8 miles    
Events Snow    
Averages and records for this station are not official NWS values.
T = Trace of Precipitation, MM = Missing Value Source: NWS Daily Summary

Daily Weather History Graph

Daily Weather History Graph

Search for Another Location

Airport or City:

Trip Planner

Search our weather history database for the weather conditions in past years. The results will help you decide how hot, cold, wet, or windy it might be!

Date:

Astronomy

Mar. 14, 2013 Rise Set
Actual Time 7:34 AM CDT 7:25 PM CDT
Civil Twilight 7:05 AM CDT 7:55 PM CDT
Nautical Twilight 6:30 AM CDT 8:30 PM CDT
Astronomical Twilight 5:54 AM CDT 9:06 PM CDT
Moon 8:37 AM CDT (3/14) 10:57 PM CDT (3/14)
Length of Visible Light 12h 50m
Length of Day
11h 50m
Waxing Crescent, 9% of the Moon is Illuminated
Mar 14
Waxing Crescent
Mar 19
First Quarter
Mar 27
Full
Apr 2
Last Quarter
Apr 10
New

Hourly Weather History & Observations

Time (CDT) Temp. Windchill Dew Point Humidity Pressure Visibility Wind Dir Wind Speed Gust Speed Precip Events Conditions
12:15 AM 19.4 °F 12.8 °F 14.0 °F 80% 30.13 in 10.0 mi SE 4.6 mph - N/A   Overcast
12:35 AM 19.4 °F 11.5 °F 14.0 °F 80% 30.12 in 10.0 mi ESE 5.8 mph - N/A   Overcast
12:53 AM 19.4 °F 10.4 °F 15.8 °F 86% 30.11 in 3.0 mi SE 6.9 mph - N/A Snow Light Snow
1:15 AM 19.4 °F 9.5 °F 17.6 °F 93% 30.11 in 0.5 mi SE 8.1 mph - N/A Snow Snow
1:52 AM 19.4 °F 9.5 °F 17.6 °F 93% 30.09 in 0.5 mi SE 8.1 mph - N/A Snow Snow
2:15 AM 19.4 °F 10.4 °F 17.6 °F 93% 30.10 in 0.5 mi SSE 6.9 mph - N/A Snow Heavy Snow
2:35 AM 19.4 °F 9.5 °F 19.4 °F 100% 30.09 in 3.0 mi SE 8.1 mph - N/A Snow Light Snow
2:53 AM 19.4 °F 8.6 °F 19.4 °F 100% 30.08 in 1.5 mi ESE 9.2 mph - N/A Snow Light Snow
3:14 AM 19.4 °F 7.2 °F 19.4 °F 100% 30.07 in 1.5 mi SE 11.5 mph - N/A Snow Light Snow
3:35 AM 19.4 °F 7.2 °F 19.4 °F 100% 30.06 in 1.8 mi ESE 11.5 mph - N/A Snow Light Snow
4:15 AM 21.2 °F 8.9 °F 19.4 °F 93% 30.04 in 10.0 mi ESE 12.7 mph - 0.01 in Snow Light Snow
4:35 AM 21.2 °F 8.9 °F 19.4 °F 93% 30.02 in 10.0 mi SE 12.7 mph - 0.02 in   Overcast
4:52 AM 21.2 °F 10.1 °F 19.4 °F 93% 30.02 in 10.0 mi SE 10.4 mph - 0.03 in Snow Light Snow
5:15 AM 21.2 °F 8.9 °F 19.4 °F 93% 30.02 in 10.0 mi SSE 12.7 mph - 0.01 in   Overcast
5:35 AM 19.4 °F 8.6 °F 17.6 °F 93% 30.03 in 10.0 mi SE 9.2 mph - 0.01 in   Overcast
5:53 AM 19.4 °F 9.5 °F 17.6 °F 93% 30.04 in 10.0 mi SE 8.1 mph - 0.01 in   Overcast
6:15 AM 19.4 °F 10.4 °F 17.6 °F 93% 30.04 in 10.0 mi ESE 6.9 mph - N/A   Overcast
6:35 AM 19.4 °F 12.8 °F 17.6 °F 93% 30.05 in 10.0 mi ESE 4.6 mph - N/A   Overcast
6:52 AM 19.4 °F 14.3 °F 17.6 °F 93% 30.06 in 10.0 mi East 3.5 mph - 0.01 in   Overcast
7:14 AM 19.4 °F 9.5 °F 17.6 °F 93% 30.06 in 10.0 mi ESE 8.1 mph - N/A   Overcast
7:35 AM 19.4 °F 11.5 °F 17.6 °F 93% 30.07 in 7.0 mi SE 5.8 mph - N/A   Overcast
7:53 AM 19.4 °F 11.5 °F 17.6 °F 93% 30.07 in 7.0 mi SE 5.8 mph - N/A   Overcast
8:14 AM 19.4 °F 9.5 °F 17.6 °F 93% 30.05 in 5.0 mi SE 8.1 mph - N/A   Overcast
8:35 AM 19.4 °F 11.5 °F 17.6 °F 93% 30.06 in 5.0 mi SE 5.8 mph - N/A   Overcast
9:15 AM 19.4 °F 10.4 °F 17.6 °F 93% 30.06 in 5.0 mi SSE 6.9 mph - N/A   Overcast
9:35 AM 21.2 °F 12.6 °F 19.4 °F 93% 30.07 in 5.0 mi SE 6.9 mph - N/A   Overcast
9:52 AM 21.2 °F 14.9 °F 19.4 °F 93% 30.07 in 5.0 mi SSE 4.6 mph - N/A   Overcast
10:15 AM 21.2 °F 14.9 °F 19.4 °F 93% 30.07 in 5.0 mi SSE 4.6 mph - N/A   Overcast
10:35 AM 23.0 °F 15.8 °F 19.4 °F 86% 30.07 in 7.0 mi SSE 5.8 mph - 0.01 in   Overcast
10:53 AM 24.8 °F 20.5 °F 19.4 °F 80% 30.08 in 7.0 mi South 3.5 mph - 0.01 in   Scattered Clouds
11:15 AM 24.8 °F - 19.4 °F 80% 30.08 in 7.0 mi Calm Calm - 0.02 in   Clear
11:34 AM 26.6 °F - 19.4 °F 74% 30.08 in 7.0 mi Calm Calm - 0.03 in   Clear
11:53 AM 26.6 °F 22.6 °F 19.4 °F 74% - 7.0 mi SE 3.5 mph - 0.04 in   Clear
12:15 PM 26.6 °F 21.2 °F 21.2 °F 80% 30.06 in 7.0 mi East 4.6 mph - 0.01 in   Clear
12:34 PM 26.6 °F - 19.4 °F 74% 30.07 in 7.0 mi Calm Calm - 0.02 in   Clear
12:53 PM 28.4 °F 24.6 °F 21.2 °F 74% 30.05 in 7.0 mi SE 3.5 mph - 0.02 in   Clear
1:15 PM 28.4 °F - 21.2 °F 74% 30.06 in 7.0 mi Calm Calm - N/A   Clear
1:35 PM 30.2 °F - 21.2 °F 69% 30.07 in 7.0 mi Calm Calm - N/A   Clear
1:53 PM 30.2 °F - 21.2 °F 69% 30.08 in 7.0 mi Calm Calm - N/A   Clear
2:14 PM 30.2 °F 26.7 °F 23.0 °F 75% 30.07 in 10.0 mi SSW 3.5 mph - N/A   Unknown
2:53 PM 33.8 °F 28.6 °F 23.0 °F 65% 30.04 in 10.0 mi South 5.8 mph - N/A   Clear
3:15 PM 33.8 °F - 23.0 °F 65% 30.04 in 10.0 mi Calm Calm - N/A   Clear
3:35 PM 33.8 °F - 24.8 °F 70% 30.04 in 10.0 mi Calm Calm - N/A   Clear
3:52 PM 33.8 °F 29.6 °F 23.0 °F 65% 30.04 in 10.0 mi SSW 4.6 mph - N/A   Clear
4:15 PM 33.8 °F 27.7 °F 24.8 °F 70% 30.05 in 10.0 mi SW 6.9 mph - N/A   Clear
4:35 PM 33.8 °F 28.6 °F 24.8 °F 70% 30.05 in 10.0 mi SW 5.8 mph - N/A   Clear
4:53 PM 35.6 °F 31.7 °F 24.8 °F 65% 30.05 in 10.0 mi SW 4.6 mph - N/A   Clear
5:15 PM 35.6 °F 32.8 °F 24.8 °F 65% 30.04 in 10.0 mi WSW 3.5 mph - N/A   Clear
5:35 PM 35.6 °F 30.7 °F 24.8 °F 65% 30.03 in 10.0 mi WSW 5.8 mph - N/A   Clear
5:53 PM 33.8 °F 27.7 °F 24.8 °F 70% 30.03 in 10.0 mi WSW 6.9 mph - N/A   Clear
6:14 PM 33.8 °F 29.6 °F 24.8 °F 70% 30.01 in 10.0 mi SW 4.6 mph - N/A   Clear
6:34 PM 32.0 °F 27.5 °F 24.8 °F 75% 30.01 in 10.0 mi WSW 4.6 mph - N/A   Clear
6:53 PM 32.0 °F 26.4 °F 24.8 °F 75% 30.00 in 10.0 mi WSW 5.8 mph - N/A   Clear
7:15 PM 30.2 °F 25.4 °F 23.0 °F 75% 30.00 in 10.0 mi West 4.6 mph - N/A   Clear
7:35 PM 30.2 °F 26.7 °F 23.0 °F 75% 30.00 in 10.0 mi SW 3.5 mph - N/A   Clear
7:52 PM 28.4 °F 24.6 °F 23.0 °F 80% 30.00 in 10.0 mi SW 3.5 mph - N/A   Clear
8:14 PM 26.6 °F 20.0 °F 21.2 °F 80% 30.01 in 10.0 mi West 5.8 mph - N/A   Clear
8:35 PM 26.6 °F 19.1 °F 21.2 °F 80% 30.00 in 10.0 mi West 6.9 mph - N/A   Clear
8:53 PM 26.6 °F 20.0 °F 23.0 °F 86% 30.01 in 10.0 mi West 5.8 mph - N/A   Clear
9:15 PM 26.6 °F 19.1 °F 21.2 °F 80% 30.02 in 10.0 mi West 6.9 mph - N/A   Clear
9:34 PM 26.6 °F 18.2 °F 21.2 °F 80% 30.01 in 10.0 mi West 8.1 mph - N/A   Clear
9:53 PM 26.6 °F 18.2 °F 23.0 °F 86% 30.01 in 7.0 mi West 8.1 mph - N/A   Clear
10:15 PM 26.6 °F 20.0 °F 23.0 °F 86% 30.00 in 7.0 mi WNW 5.8 mph - N/A   Clear
10:35 PM 26.6 °F 19.1 °F 23.0 °F 86% 30.00 in 7.0 mi WNW 6.9 mph - N/A   Clear
10:53 PM 26.6 °F 19.1 °F 21.2 °F 80% 30.00 in 7.0 mi WNW 6.9 mph - N/A   Clear
11:14 PM 26.6 °F 18.2 °F 21.2 °F 80% 30.00 in 7.0 mi NW 8.1 mph - N/A   Clear
11:35 PM 24.8 °F 15.3 °F 21.2 °F 86% 30.00 in 7.0 mi NW 9.2 mph - N/A   Mostly Cloudy
11:53 PM 24.8 °F 16.1 °F 21.2 °F 86% 30.00 in 7.0 mi NW 8.1 mph - N/A   Overcast